Regional Weather Roundup
Issued by NWS Sioux Falls, SD

Home | Current Version | Previous Version | Text Only | Print | Product List | Glossary On
Versions: 1 2 3 4 5 6 7 8 9 10 11 12 13 14 15 16 17 18 19 20 21 22 23 24 25 26 27 28 29 30 31 32 33 34 35 36 37 38 39 40 41 42 43 44 45 46 47 48 49 50
000
ASUS43 KFSD 251510
RWRFSD

WEATHER ROUNDUP FOR SE SOUTH DAKOTA/SW MINNESOTA/NW IOWA
NATIONAL WEATHER SERVICE SIOUX FALLS SD
1000 AM CDT THU AUG 25 2016

NOTE: "FAIR" INDICATES FEW OR NO CLOUDS BELOW 12,000 FEET WITH NO
SIGNIFICANT WEATHER AND OR OBSTRUCTIONS TO VISIBILITY.


SDZ038>040-050-052>070-251600-
SOUTHEAST SOUTH DAKOTA

CITY           SKY/WX    TMP DP  RH WIND       PRES   REMARKS
BROOKINGS      MOSUNNY   58  52  80 NW13      30.13R
CHAMBERLAIN    MOSUNNY   63  53  68 W10       30.21S
HURON          MOSUNNY   61  50  67 NW13      30.16R
MADISON        FAIR      57  54  88 NW12      30.15R
MITCHELL       CLOUDY    60  52  74 NW8       30.18R
SIOUX FALLS    CLOUDY    61  53  75 NW13      30.15R
WINNER         FAIR      63  51  65 NW13      30.24R
YANKTON        CLOUDY    61  48  63 NW10      30.17R
$$

MNZ071-072-080-081-089-090-097-098-251600-
SOUTHWEST MINNESOTA

CITY           SKY/WX    TMP DP  RH WIND       PRES   REMARKS
FAIRMONT       CLOUDY    65  55  70 NW9       30.11R
JACKSON        MOSUNNY   64  54  68 NW8       30.12R
LUVERNE        CLOUDY    61  52  72 NW6       30.14R
MARSHALL       CLOUDY    62  54  74 NW13      30.11R HAZE
MONTEVIDEO     CLOUDY    63  54  72 NW12G17   30.11R
REDWOOD FALLS  CLOUDY    63  53  70 W14       30.09R
TRACY          CLOUDY    63  54  73 NW10      30.11R
WINDOM         CLOUDY    64  54  68 W9        30.11R
WORTHINGTON    CLOUDY    63  54  72 NW9       30.14R
$$

IAZ001>003-012>014-020>022-031-032-NEZ013-014-SDZ071-251600-
NORTHWEST IOWA

CITY           SKY/WX    TMP DP  RH WIND       PRES   REMARKS
CHEROKEE       CLOUDY    64  59  83 N5        30.13R
DENISON        CLOUDY    63  61  94 CALM      30.12R
ESTHERVILLE    PTSUNNY   64  58  80 N6        30.11R
LE MARS        CLOUDY    64  57  77 N5        30.15R
ORANGE CITY    CLOUDY    63  57  82 N6        30.15R
SHELDON        PTSUNNY   63  57  82 N9        30.12R
SIOUX CITY     CLOUDY    63  58  83 NW7       30.14R
SPENCER        CLOUDY    65  57  75 N6        30.12R
STORM LAKE     CLOUDY    66  63  88 VRB3      30.13R
$$

ABBREVIATIONS USED IN REMARKS
   TC - TEMPERATURE IN CELSIUS
  WCI - WIND CHILL INDEX
   HX - HEAT INDEX
  VSB - VISIBILITY





USA.gov is the U.S. government's official web portal to all federal, state and local government web resources and services.